www.pogodaiklimat.ru

Погода и климат >> Архив погоды >> Украина >> Одесса


АРХИВ ПОГОДЫ в Одессе

Время (UTC), дата Ветер
(напр.,м/с)
 
Видим.   Явления Облачность Т
(С)
Тd
(С)
f
(%)
Тe
(С)
Тes
(С)
Комфортность P
(гПа)
Po
(гПа)
Тmin
(С)
Tmax
(С)
R
(мм)
R24
(мм)
S
(см)
12 12.01 З 4 8000 м дымка 10/6 210 м
[Sc Ac und Ci]
-1.7 -3.6 87 -8 -7 холодно 1010.1 1004.8
15 12.01 З 2 5000 м слаб. снег 10/8 300 м
[Frnb As op]
-1.8 -4.0 85 -6 -6 по сезону 1010.2 1004.9
18 12.01 З 2 7000 м дымка {снег} 10/6 800 м
[Sc Ac As]
-1.7 -3.9 85 -6 -6 по сезону 1010.5 1005.2 -1.4 0.0
21 12.01 З 3 10 км 10/6 600 м
[Sc Ac und]
-1.7 -3.5 87 -7 -7 по сезону 1010.7 1005.4
00 13.01 З 3 10 км 10/10 1300 м
[Sc]
-1.4 -4.1 82 -6 -6 по сезону 1010.4 1005.1
03 13.01 З 3 11 км 10/10 1200 м
[Sc]
-1.2 -3.9 82 -6 -6 по сезону 1010.0 1004.7
06 13.01 З 2 13 км 10/10 1000 м
[Sc]
-1.2 -4.4 79 -5 -5 по сезону 1010.4 1005.1 -1.7 1
09 13.01 З 2 22 км 8/3 600 м
[Sc diur, vesp Ac trans Ci fib]
+1.0 -4.8 65 -2 -1 по сезону 1010.2 1004.9
12 13.01 ЮЗ 2 40 км 8/3 600 м
[Sc diur, vesp Ac trans Ci fib]
+2.8 -6.6 50 0 +1 по сезону 1008.4 1003.2
15 13.01 ЮЗ 1 20 км 4/0
[Ci fib]
+0.4 -6.0 62 -1 -1 по сезону 1007.2 1001.9
18 13.01 ЮЗ 1 16 км ясно +0.1 -4.5 71 -2 -2 по сезону 1006.1 1000.8 +3.5
21 13.01 ЮЗ 3 15 км ясно +0.4 -2.8 79 -4 -4 по сезону 1004.1 998.8
00 14.01 ЮЗ 4 40 км ясно +0.6 -5.4 64 -4 -4 по сезону 1000.9 995.7
03 14.01 ЮЗ 4 16 км 8/3 600 м
[Sc diur, vesp Ac und]
+0.6 -2.3 81 -5 -5 по сезону 998.7 993.5
06 14.01 ЮЗ 1 22 км 6/3 600 м
[Sc diur, vesp Ac trans]
-0.3 -3.7 78 -2 -2 по сезону 997.6 992.4 -0.3 0
09 14.01 ЮЗ 4 18 км 9/9 300 м
[St]
+1.8 -0.6 84 -3 -3 по сезону 996.5 991.3
12 14.01 ЮЗ 4 30 км 8/0
[Ac trans Ci fib]
+4.6 -0.4 70 +1 +2 по сезону 993.5 988.4
15 14.01 ЮЗ 3 35 км 10/0
[Ac trans Ci fib]
+3.7 -1.1 71 0 0 по сезону 993.8 988.7
18 14.01 З 2 23 км 10/8 1500 м
[Sc Ac trans]
+2.9 -1.5 73 0 0 по сезону 995.4 990.2 +4.7
21 14.01 З 3 16 км 10/4 600 м
[Sc Ac und]
+1.1 -1.8 81 -3 -3 по сезону 996.7 991.5
00 15.01 З 1 11 км 10/0
[Ac trans Ci sp]
+0.7 -1.9 83 -1 -1 по сезону 998.7 993.5
03 15.01 СЗ 3 26 км 10/3 600 м
[Sc Ac trans]
+1.6 -2.9 72 -2 -2 по сезону 1000.2 995.0
06 15.01 СЗ 3 26 км 10/3 600 м
[Sc Ac trans]
+1.6 -2.9 72 -2 -2 по сезону 1000.2 995.0
09 15.01 СЗ 2 35 км в посл. час ливневой снег 10/5 300 м
[Cb calv Ac und]
-0.2 -2.9 82 -4 -3 по сезону 1005.3 1000.0
12 15.01 СЗ 2 50 км {ливн. осадки} 10/4 600 м
[Sc Ac und]
-0.5 -6.3 65 -4 -3 по сезону 1005.7 1000.4
15 15.01 СЗ 3 45 км 10/0
[Ac trans Ci fib]
-1.5 -6.4 69 -6 -6 прохладно 1006.5 1001.2
18 15.01 СЗ 3 19 км ясно -2.3 -7.4 68 -7 -7 прохладно 1006.9 1001.6 +0.1 0.6
21 15.01 З 2 22 км 3/0
[Ci fib]
-2.8 -7.5 70 -7 -7 по сезону 1007.7 1002.4
00 16.01 З 2 23 км ясно -3.6 -9.2 65 -7 -7 по сезону 1007.4 1002.0
03 16.01 З 5 45 км ясно -5.0 -9.6 70 -12 -12 холодно 1007.1 1001.7
06 16.01 З 2 45 км 3/0
[Ci fib]
-3.9 -10.1 62 -8 -8 по сезону 1006.7 1001.3 -5.1 0
09 16.01 З 3 40 км 10/4 600 м
[Sc diur, vesp Ac und]
-1.2 -8.0 60 -6 -5 по сезону 1005.5 1000.2
12 16.01 З 6 30 км в посл. час ливневой снег 8/4 600 м
[Sc diur, vesp Ac und Ci fib]
+0.1 -4.7 70 -6 -6 прохладно 1002.8 997.5
15 16.01 СЗ 5 45 км {ливн. осадки} 9/6 870 м
[Sc diur, vesp Ci ing]
+2.0 -0.7 82 -4 -4 по сезону 1005.3 1000.1
18 16.01 С 7 26 км в посл. час зёрна {ливн. осадки} 10/4 300 м
[Sc diur, vesp Ac und]
-1.8 -4.6 81 -9 -9 прохладно 1010.5 1005.2 +2.1 2
21 16.01 СЗ 9 29 км 10/8 800 м
[Sc diur, vesp Ac und]
-2.0 -4.8 81 -10 -10 холодно 1014.2 1008.8
00 17.01 СЗ 5 27 км 10/4 600 м
[Sc diur, vesp Ac und]
-3.4 -6.0 82 -10 -10 прохладно 1016.0 1010.6
03 17.01 З 2 15 км 6/4 600 м
[Sc diur, vesp Ac und]
-4.8 -6.8 86 -9 -9 прохладно 1017.2 1011.8
06 17.01 З 1 10 км 3/0
[Ci fib]
-6.0 -7.4 90 -8 -8 по сезону 1018.7 1013.2 -6.4 5
09 17.01 Ю 3 16 км 3/0
[Ac trans Ci fib]
-0.1 -3.6 77 -5 -2 по сезону 1018.3 1013.0
12 17.01 ЮЗ 2 20 км 3/0
[Ac trans Ci fib]
+2.0 -3.9 65 -1 +1 по сезону 1017.3 1012.0
15 17.01 ЮЗ 2 40 км 4/0
[Ci fib]
+2.2 -0.5 82 -1 -1 по сезону 1016.6 1011.3
18 17.01 Ю 3 40 км 3/3 300 м
[St]
+4.0 +2.0 87 0 0 по сезону 1015.2 1010.0 +4.0
21 17.01 Ю 3 40 км 3/3 300 м
[St]
+4.0 +2.0 87 0 0 по сезону 1015.2 1010.0 +4.0
00 18.01 Ю 3 35 км 6/0
[Ac trans]
+3.8 +2.5 91 -0 -0 тепло 1013.5 1008.3
03 18.01 Ю 2 25 км 3/0
[Ac trans]
+3.2 +1.4 88 0 0 тепло 1012.6 1007.4
06 18.01 ЮЗ 1 45 км 3/0
[Ci fib]
+1.5 -1.4 81 -0 0 тепло 1013.2 1007.9 +1.4 0
09 18.01 штиль 0 30 км ясно +6.0 +0.3 67 +5 +10 тепло 1013.9 1008.7
12 18.01 ЮЗ 1 30 км 4/0
[Ci fib]
+9.8 +0.7 53 +10 +12 тепло 1013.0 1007.9
15 18.01 ЮЗ 1 20 км 9/0
[Ci fib]
+4.7 +1.4 79 +4 +4 тепло 1013.2 1008.0
18 18.01 Ю 1 20 км 6/0
[Ci fib]
+5.8 +3.4 85 +5 +5 тепло 1013.2 1008.0 +9.8
21 18.01 Ю 1 20 км 8/0
[Ac trans Ci fib]
+5.2 +0.8 73 +4 +4 тепло 1012.9 1007.7
00 19.01 штиль 0 16 км 10/3 600 м
[Sc Ac und Ci fib]
+2.8 +1.0 88 +2 +2 тепло 1012.8 1007.6
03 19.01 ЮЗ 3 10 км 10/3 600 м
[Sc Ac und]
-0.4 -2.8 84 -5 -5 по сезону 1015.8 1010.5
06 19.01 З 2 20 км 9/3 300 м
[St Ac und Ci fib]
+1.9 -0.6 83 -1 -1 по сезону 1018.6 1013.3 -0.9
09 19.01 С 3 20 км 4/0
[Ci fib]
+2.4 -3.6 65 -1 +1 по сезону 1021.7 1016.4

 

Местоположение метеостанции Одесса (Одесская область, Украина): широта 46.43 долгота 30.77 высота над уровнем моря 42 м.

В архиве по умолчанию представлена погода в Одессе за последнюю неделю. Архивные данные за месяц целиком и за предыдущие месяцы, начиная с января 2011 года, Вы можете получить, выбрав интересующий диапазон дат из раскрывающегося списка и нажав кнопку "Ввод!".


*Определитесь, кто Вы:
робот инопланетянин человек

Внимание! Время в таблицах - всемирное. Для получения местного времени необходимо прибавить поправку, которая равна 2 ч.

Смотрите также архив погоды в соседних городах и на ближайших метеорологических станциях:

Погода в Ильичевске (Одесская область, Украина) (6 км)
Погода в Белгород-Днестровском (Одесская область, Украина) (41 км)
Погода в Очакове (Николаевская область, Украина) (64 км)
Погода в Сербке (Одесская область, Украина) (66 км)
Погода в Раздельной (Одесская область, Украина) (70 км)
Погода в Заставе (Одесская область, Украина) (72 км)
Погода в Сарате (Одесская область, Украина) (96 км)
Погода в Штефан Водэ (Молдова) (99 км)
Погода в Тирасполе (Молдова) (103 км)
Погода в Николаеве (Николаевская область, Украина) (112 км)

Пояснения к столбцам:

Ветер - указаны скорость ветра в м/с - средняя за 10 мин, порывы в срок и между сроками (в фигурных скобках) и направление, откуда дует ветер: С - северный, СВ - северо-восточный, В - восточный, ЮВ - юго-восточный, Ю - южный, ЮЗ - юго-западный, З - западный, СЗ - северо-западный.
Видимость - горизонтальная дальность видимости в метрах или километрах. При видимости от 1 до 10 км при отсутствии осадков обычно наблюдается дымка, при ухудшении видимости до 1 км и менее - туман. В сухую погоду видимость может ухудшаться дымом, пылью или мглою.
Явления - указаны атмосферные явления, наблюдавшиеся в срок или в последний час перед сроком; фигурными скобками обозначены явления, наблюдавшиеся между сроками (за 1-3 часа до срока); квадратными скобками обозначены град или гололедные отложения с указанием их диаметра в мм.
Облачность - указаны через наклонную черту общая и нижняя облачность в баллах и высота нижней границы облаков в метрах; квадратными скобками обозначены формы облаков: Ci - перистые, Cs - перисто-слоистые, Cc - перисто-кучевые, Ac - высококучевые, As - высокослоистые, Sc - слоисто-кучевые, Ns - слоисто-дождевые, Cu - кучевые, Cb - кучево-дождевые. Подробнее классификацию облаков см. в Атласе облаков (PDF).
T - Температура воздуха - температура, измеренная на высоте 2 м над землей.
Td - Температура точки росы - температура, при понижении до которой содержащийся в воздухе водяной пар достигнет насыщения.
f - Относительная влажность воздуха - влажноcть воздуха, измеренная на высоте 2 м над землей.
Te - Эффективная температура - температура, которую ощущает одетый по сезону человек в тени. Характеристика душности погоды. При расчете учитывается влияние влажности воздуха и скорости ветра на теплоощущения человека.
Tes - Эффективная температура на солнце - температура, которую ощущает человек, с поправкой на солнечный нагрев. Характеристика знойности погоды. Зависит от высоты солнца над горизонтом, облачности и скорости ветра. Ночью, в пасмурную погоду, а также при ветре 12 м/с и более поправка равна нулю.
P - Атмосферное давление - приведенное к уровню моря атмосферное давление.
Po - Атмосферное давление - измеренное на уровне метеостанции атмосферное давление.
Tmin - Минимальная температура - минимум температуры воздуха на высоте 2 м над землей.
Tmax - Максимальная температура - максимум температуры воздуха на высоте 2 м над землей.
R - Количество осадков - Количество выпавших осадков за период времени, мм. При наведении курсора мыши на число - период времени, за который выпало указанное количество осадков.
R24 - Количество осадков - Количество выпавших осадков за 24 часа, мм.
S - Снежный покров - Высота снежного покрова, см. При наведении курсора мыши на число - состояние снежного покрова и степень покрытия местности в баллах.